Lid_Strength_Index
16 15 15 15 14 14 14 14 16 18 17 15 16 15 15 15 14 14 14 12 10 9 7 4 4 4 4 4 4 4 4 4 4 5 4 4 4 5
15 16 15 15 15 15 14 14 14 15 18 14 13 15 14 13 14 14 14 12 11 10 8 7 5 5 5 5 5 5 5 4 4 5 5 5 5 5
16 16 15 15 15 15 15 15 15 15 17 16 14 12 14 14 13 14 14 14 14 11 10 8 7 6 5 6 6 6 6 5 5 5 5 5 5 6
16 16 16 15 16 15 15 15 15 15 16 17 15 14 13 12 13 14 13 14 14 12 10 9 8 7 7 6 6 6 6 6 5 5 5 5 5 6
15 15 15 15 16 16 16 15 15 14 15 16 16 14 13 13 13 13 13 13 13 11 10 10 9 8 7 7 7 7 7 7 7 6 6 6 6 6
15 15 15 15 15 16 16 16 15 15 15 15 16 15 15 13 14 14 13 13 13 12 11 10 10 9 8 7 8 9 8 7 7 7 7 7 7 7
14 14 14 14 13 14 15 16 15 16 16 16 16 16 15 15 15 13 14 13 12 12 13 13 12 11 10 8 9 9 8 8 7 7 7 7 7 8
15 15 15 15 15 14 13 13 14 16 17 16 16 16 15 14 13 14 13 13 14 13 12 13 13 13 11 10 8 8 8 8 8 8 8 7 8 8
15 16 16 15 16 16 15 14 14 14 13 15 17 17 16 15 14 14 13 13 13 12 13 13 13 14 12 11 8 7 7 8 8 8 8 8 8 8
16 16 16 16 16 16 16 16 15 15 14 14 15 16 15 15 15 15 14 13 13 12 12 14 13 12 11 11 9 8 7 7 8 8 8 8 8 9
16 16 16 16 15 13 14 15 15 14 12 12 12 11 11 11 11 12 14 15 16 14 11 12 12 12 12 11 11 8 8 7 7 7 7 8 8 9
16 15 13 13 12 12 13 15 16 15 14 15 14 13 12 13 11 13 14 16 15 15 11 12 12 12 15 13 11 11 10 8 7 7 7 7 8 10
15 15 14 12 11 11 11 13 14 13 13 14 14 14 14 13 13 13 13 13 15 14 10 9 11 11 12 16 14 11 11 10 10 9 7 7 8 9
14 14 13 11 10 9 10 9 9 10 12 14 15 16 15 15 15 14 13 12 11 12 10 10 9 10 11 12 13 14 12 11 10 11 10 8 8 8
12 11 10 10 10 11 11 11 12 13 14 15 15 15 15 15 14 15 14 14 14 13 11 9 9 9 9 11 12 15 15 13 11 10 10 10 10 9
12 12 12 13 13 14 16 15 15 15 15 16 16 15 14 14 15 15 17 17 17 16 13 10 8 8 9 10 10 13 13 14 12 11 10 11 10 9
13 17 19 20 20 19 19 18 18 17 17 16 16 16 15 16 16 15 16 16 18 17 15 11 8 7 7 8 10 10 12 12 12 11 11 11 11 11
18 23 23 22 22 21 21 20 19 18 16 16 16 15 16 16 16 16 15 16 17 16 15 11 8 8 8 8 7 9 10 11 11 10 10 11 11 11
27 25 24 24 23 22 22 21 20 18 16 15 14 14 15 16 16 16 15 15 15 13 12 11 8 8 11 13 13 6 10 11 11 11 10 11 12 11
31 25 25 24 23 22 21 21 20 19 17 16 14 14 14 15 15 15 14 12 14 13 11 9 8 8 10 12 12 15 8 10 11 12 11 10 10 10
24 24 23 22 22 21 21 20 19 19 17 16 15 13 13 13 14 13 12 10 10 10 9 11 8 7 8 10 13 16 12 8 9 11 11 12 14 15
23 23 22 21 21 21 20 20 19 18 17 16 16 14 13 12 11 11 10 10 9 8 10 11 10 10 11 11 13 18 15 11 9 8 9 11 14 17
23 22 21 21 20 20 20 20 19 18 17 16 16 15 14 14 13 11 10 9 10 10 11 12 11 11 11 12 14 15 14 13 13 14 14 10 13 13